Weather Roundup
Issued by NWS Chicago, IL

Home | Current Version | Previous Version | Text Only | Print | Product List | Glossary Off
Versions: 1 2 3 4 5 6 7 8 9 10 11 12 13 14 15 16 17 18 19 20 21 22 23 24 25 26 27 28 29 30 31 32 33 34 35 36 37 38 39 40 41 42 43 44 45 46 47 48 49 50

013
NZUS59 KLOT 220409
HRRLOT

CHICAGO AREA WEATHER ROUNDUP
NATIONAL WEATHER SERVICE CHICAGO/ROMEOVILLE IL
1100 PM CDT MON AUG 21 2017

NOTE: "FAIR" INDICATES FEW OR NO CLOUDS BELOW 12,000 FEET WITH NO
SIGNIFICANT WEATHER AND/OR OBSTRUCTIONS TO VISIBILITY.

* THESE STATIONS ARE NOT UNDER NWS QUALITY CONTROL. THEY ALSO MAY NOT
  REPORT WEATHER SUCH AS PRECIPITATION OR FOG.

ILZ005-006-012>014-019>023-220500-
NORTHEAST ILLINOIS

CITY           SKY/WX    TMP DP  RH WIND       PRES   REMARKS
OHARE          CLOUDY    78  68  71 SW9       29.91F HX  80
MIDWAY         CLOUDY    78  71  79 SW12      29.93F THUNDER HX  80
AURORA         LGT RAIN  73  71  93 SW10      29.95F
LANSING*       CLOUDY    74  69  83 S9        29.94F
JOLIET*        TSTM      76  73  89 W15G28    29.99R
WAUKEGAN       CLOUDY    75  70  84 SW10      29.89F
DUPAGE AIRPORT LGT RAIN  72  71  97 SW12G23   29.93F FOG
WHEELING       CLOUDY    77  70  79 S8        29.92F
MORRIS*        TSTM      70  68  93 NW5       29.94S
LEWIS AIRPORT* TSTM      73  70  89 W17       29.98R
NORTHERLY ISL    N/A     78  68  71 S8          N/A  HX  80
$$

WIZ051-052-058>065-066-070>072-220500-
SOUTHEAST WISCONSIN

CITY           SKY/WX    TMP DP  RH WIND       PRES   REMARKS
MILWAUKEE      CLOUDY    76  71  85 SW15      29.87F
KENOSHA*       CLOUDY    75  68  78 SW12      29.89F
RACINE*        CLOUDY    76  70  82 SW8       29.89F
WAUKESHA       CLOUDY    70  64  83 S6        29.87F
WEST BEND      CLOUDY    72  68  88 SW9       29.84F
$$

INZ001>003-010>013-019-020-220500-
NORTHWEST INDIANA

CITY           SKY/WX    TMP DP  RH WIND       PRES   REMARKS
GARY*          CLOUDY    79  71  76 S7        29.94F HX  81
MICHIGAN CITY* NOT AVBL
RENSSELAER*    NOT AVBL
VALPARAISO     PTCLDY    75  69  81 SW8       29.97F
$$

LMZ740>746-220500-
SOUTHERN LAKE MICHIGAN

STATION/POSITION TIME  SKY/WX   TEMP WIND        PRES    VSBY
                                AIR  DIR/SP/G
                 (UTC)          (F)  (DEG/KT/KT) (MB)    (MI)
HARRISON CRIB    0340            80  210/ 17/ 18   N/A
BURNHAM HARBOR   NOT AVBL
CALUMET HARBOR   0348            78  190/  7/ 12 1012.9F
BURNS HARBOR     0340            77  190/ 14/ 19 1014.2F
MICHIGAN CITY    0340            77  180/ 14/ 16   N/A
$$

ABBREVIATIONS USED IN REMARKS
   TC - TEMPERATURE IN CELSIUS
  WCI - WIND CHILL INDEX
   HX - HEAT INDEX
  VSB - VISIBILITY
$$




USA.gov is the U.S. government's official web portal to all federal, state and local government web resources and services.